Location: Lango�lan
(48.1202°N, 3.2340°W)
Time: 20:14:23
(UTC+00:00)

ALOS - Pass Details

Date: 23 October 2019
Orbit: 683 x 686 km, 97.8° (Epoch: 21 November)

Event Time Altitude Azimuth Distance (km) Brightness Sun altitude
Rises 05:41:35 0° 14° (NNE) 3,060 5.7 -11.0°
Reaches altitude 10° 05:43:50 10° 17° (NNE) 2,140 5.0 -10.6°
Maximum altitude 05:48:31 74° 102° (ESE) 716 2.6 -9.9°
Drops below altitude 10° 05:53:10 10° 188° (S) 2,122 4.8 -9.1°
Sets 05:55:24 0° 190° (S) 3,033 5.6 -8.7°
